FW3942 Weather Reports


time (UTC)temp
F
wind
direction
speed
knots
gust
knots
rain 1hr
in
rain 24hr
in
rain mn
in
humidity
%
barometer
mb
20260505070050 42 238 12.2 17.4 0.00 0.13 0.00 88 1008.1
20260505064533 42 200 13.0 20.0 0.00 0.13 0.00 89 1007.7
20260505063034 42 234 11.3 18.2 0.00 0.13 0.00 88 1007.4
20260505061530 42 212 14.8 20.9 0.00 0.13 0.00 88 1007.2
20260505060029 42 192 12.2 21.7 0.00 0.13 0.00 88 1006.9
20260505054526 42 226 12.2 18.2 0.00 0.13 0.00 88 1006.7
20260505053022 42 209 13.0 19.1 0.00 0.13 0.00 88 1006.3
20260505051523 41 185 12.2 20.9 0.00 0.13 0.00 88 1006.1
20260505041521 43 215 13.9 21.7 0.00 0.13 0.00 85 1005.3
20260505040010 43 221 13.9 21.7 0.00 0.13 0.00 86 1005.2
20260505034509 43 217 12.2 19.1 0.00 0.13 0.00 84 1005.3
20260505033004 42 223 12.2 17.4 0.00 0.13 0.00 86 1005.1
20260505031601 43 218 13.0 18.2 0.00 0.13 0.00 85 1004.7
20260505030059 43 217 12.2 20.9 0.00 0.13 0.00 84 1004.7
20260505024557 43 211 11.3 23.5 0.00 0.13 0.13 83 1004.5
20260505023055 44 211 11.3 21.7 0.00 0.13 0.13 83 1004.2
20260505021554 44 218 13.0 26.9 0.00 0.13 0.13 82 1003.9
20260505020052 44 211 14.8 24.3 0.00 0.13 0.13 82 1003.5
20260505014652 44 237 14.8 27.8 0.00 0.13 0.13 80 1003.6
20260505013052 44 189 13.9 21.7 0.00 0.13 0.13 79 1003.4
20260505011549 45 208 15.6 23.5 0.00 0.13 0.13 77 1003.2
20260505010048 46 217 13.0 23.5 0.00 0.13 0.13 75 1003.0
20260505004547 46 198 16.5 27.8 0.00 0.15 0.13 75 1002.9
20260505003044 44 207 13.9 25.2 0.00 0.15 0.13 77 1002.8
20260505001556 44 209 12.2 21.7 0.00 0.15 0.13 75 1002.8
20260505000053 44 209 13.9 19.1 0.00 0.15 0.13 75 1002.5
20260504234558 44 199 10.4 18.2 0.00 0.17 0.13 76 1002.3
20260504233040 44 215 8.7 13.9 0.00 0.17 0.13 73 1002.2
20260504231538 45 224 10.4 19.1 0.00 0.17 0.13 71 1002.1
20260504230036 45 222 8.7 15.6 0.00 0.23 0.13 71 1002.0
20260504224541 45 172 9.6 15.6 0.00 0.23 0.13 71 1002.0
20260504223041 45 208 10.4 20.0 0.00 0.23 0.13 71 1001.9
20260504221536 46 227 11.3 18.2 0.00 0.23 0.13 71 1001.8
20260504220032 45 224 10.4 17.4 0.00 0.28 0.13 74 1001.7
20260504214530 46 224 13.9 20.0 0.00 0.28 0.13 72 1001.5
20260504213047 46 193 9.6 16.5 0.00 0.28 0.13 74 1001.3
20260504211526 47 214 10.4 14.8 0.00 0.28 0.13 73 1001.1
20260504210027 45 217 12.2 18.2 0.00 0.32 0.13 76 1000.9
20260504204523 45 193 13.0 18.2 0.00 0.32 0.13 77 1000.6
20260504203021 46 170 10.4 20.9 0.00 0.32 0.13 78 1000.4
20260504201525 46 224 12.2 20.0 0.00 0.32 0.13 79 1000.4
20260504200019 46 215 10.4 16.5 0.00 0.35 0.13 78 1000.1
20260504194519 47 221 13.0 22.6 0.00 0.35 0.13 76 999.8
20260504193014 46 230 9.6 16.5 0.00 0.35 0.13 80 999.6
20260504191513 45 240 12.2 20.0 0.00 0.35 0.13 81 999.6
20260504190012 46 249 12.2 21.7 0.00 0.35 0.13 80 999.3
20260504184513 46 237 13.9 23.5 0.00 0.35 0.13 80 999.2
20260504183006 44 257 13.0 19.1 0.00 0.35 0.13 83 999.2
20260504181502 43 219 12.2 18.2 0.00 0.35 0.13 85 999.1
20260504180001 43 233 13.0 21.7 0.00 0.35 0.13 86 999.0
20260504174616 42 240 13.9 23.5 0.00 0.35 0.13 86 998.7
20260504173058 42 238 14.8 26.1 0.00 0.35 0.13 87 998.5
20260504171554 42 244 16.5 23.5 0.00 0.35 0.13 88 998.3
20260504090119 36 303 13.9 20.0 0.02 0.27 0.06 95 978.9
20260504081547 37 261 9.6 13.9 0.03 0.25 0.04 95 977.1